Location: ????????
(56.1167°N, 38.6333°E)
Time: 20:00:59
(UTC+00:00)

CZ-4C R/B - Pass Details

Date: 18 November 2025
Orbit: 487 x 1493 km, 63.4° (Epoch: 14 December)

Event Time Altitude Azimuth Distance (km) Brightness Sun altitude
Rises 17:00:19 0° 290° (WNW) 3,212 6.4 -31.2°
Reaches altitude 10° 17:02:35 10° 297° (WNW) 2,418 5.4 -31.5°
Enters shadow 17:07:26 44° 354° (N) 1,307 3.2 -32.1°
